Flag for Canada Weather past 2 weeks in Red Deer, Alberta, Canada

Now
77 °F

Broken clouds.


Feels Like: 77 °F
Forecast: 45 / 76 °F
Wind: 17 mph from South

Location: Red Deer

Current Time: May 24, 2015 at 4:30:36 PM

Latest Report: May 24, 2015 at 3:00 PM


Visibility: 15 mi

Pressure: 29.98 "Hg

Humidity: 15%

Dew point: 27 °F

Location of Red DeerLocation

Historic Weather in Red Deer — Graph

°F

Red Deer temperature yesterday

Maximum temperature yesterday: 77 °F (at 4:00 PM)
Minimum temperature yesterday: 37 °F (at 5:00 AM)
Average temperature yesterday: 61 °F

Past Weeks' High & Low Weather Summary

 TemperatureHumidityPressure
High77 °F (May 23, 4:00 PM)100% (May 16, 1:00 PM)30.49 "Hg (May 16, 1:00 PM)
Low28 °F (May 12, 7:00 AM)11% (May 23, 3:00 PM)29.85 "Hg (May 15, 7:00 PM)
Average51 °F46%30.16 "Hg
* Reported May 9 3:00 PM — May 24 3:00 PM, Red Deer, Weather by CustomWeather, © 2015

Note: Actual official high and low records may vary slightly from our data, if they occured in-between our weather recording intervals... More about our weather records

Advertising

Red Deer weather history for previous 24 hours

 ConditionsComfort  
Time TempWeatherWind HumidityBarometerVisibility
3:00 PM
Sun, May 24
77 °FBroken clouds.17 mph15%29.98 "Hg15 mi
2:00 PM75 °FBroken clouds.17 mph15%29.99 "Hg15 mi
1:00 PM75 °FBroken clouds.16 mph16%30.00 "Hg15 mi
12:00 PM75 °FScattered clouds.15 mph16%30.01 "Hg15 mi
11:00 AM73 °FPassing clouds.17 mph19%30.02 "Hg15 mi
10:00 AM68 °FPassing clouds.8 mph30%30.03 "Hg15 mi
9:00 AM61 °FPassing clouds.9 mph39%30.05 "Hg15 mi
8:00 AM54 °FScattered clouds.5 mph47%30.06 "Hg15 mi
7:00 AM46 °FScattered clouds.2 mph71%30.07 "Hg15 mi
6:00 AM45 °FPassing clouds.No wind66%30.08 "Hg15 mi
5:00 AM43 °FPassing clouds.3 mph66%30.08 "Hg15 mi
4:00 AM43 °FPassing clouds.2 mph71%30.09 "Hg15 mi
3:00 AM50 °FClear.2 mph50%30.08 "Hg15 mi
2:00 AM54 °FClear.3 mph44%30.08 "Hg15 mi
1:00 AM54 °FClear.6 mph41%30.08 "Hg15 mi
12:00 AM55 °FPassing clouds.6 mph38%30.09 "Hg15 mi
11:00 PM
Sat, May 23
59 °FPassing clouds.5 mph34%30.08 "Hg15 mi
10:00 PM63 °FPassing clouds.6 mph27%30.08 "Hg15 mi
9:00 PM68 °FPassing clouds.8 mph24%30.08 "Hg15 mi
8:00 PM75 °FPassing clouds.8 mph15%30.08 "Hg15 mi
7:00 PM77 °FScattered clouds.6 mph12%30.10 "Hg15 mi
6:00 PM77 °FScattered clouds.7 mph12%30.11 "Hg15 mi
5:00 PM77 °FScattered clouds.2 mph13%30.12 "Hg15 mi
4:00 PM77 °FPassing clouds.3 mph11%30.13 "Hg15 mi
Weather by CustomWeather, © 2015

See weather overviewHow to use our weather pages